Haines, AK

5:40 AM AKDT on October 20, 2017 (GMT -0800)
Haines

Weather History for PAHN - September, 2011

Change the Weather History Date:

Wednesday, September 28, 2011

  Actual Average Record
Temperature  
Mean Temperature 45 °F -  
Max Temperature 48 °F 50 °F 64 °F (2003)
Min Temperature 42 °F 41 °F 30 °F (1983)
Degree Days  
Heating Degree Days 20    
Moisture  
Dew Point 43 °F    
Average Humidity 89    
Maximum Humidity 93    
Minimum Humidity 76    
Precipitation  
Precipitation 0.67 in - - ()
Sea Level Pressure  
Sea Level Pressure 30.02 in    
Wind  
Wind Speed 11 mph (East)    
Max Wind Speed 15 mph    
Max Gust Speed 32 mph    
Visibility 9 miles    
Events Rain    
Averages and records for this station are not official NWS values.
T = Trace of Precipitation, MM = Missing Value Source: NWS Daily Summary

Daily Weather History Graph

Daily Weather History Graph

Search for Another Location

Airport or City:

Trip Planner

Search our weather history database for the weather conditions in past years. The results will help you decide how hot, cold, wet, or windy it might be!

Date:

Astronomy

Sep. 28, 2011 Rise Set
Actual Time 7:00 AM AKDT 6:44 PM AKDT
Civil Twilight 6:19 AM AKDT 7:24 PM AKDT
Nautical Twilight 5:31 AM AKDT 8:12 PM AKDT
Astronomical Twilight 4:40 AM AKDT 9:02 PM AKDT
Moon 9:22 AM AKDT (9/28) 6:29 PM AKDT (9/28)
Length of Visible Light 13h 05m
Length of Day
11h 44m
Waxing Crescent, 3% of the Moon is Illuminated
Sep 28
Waxing Crescent
Oct 3
First Quarter
Oct 11
Full
Oct 19
Last Quarter
Oct 26
New

Hourly Weather History & Observations

Time (AKDT) Temp. Windchill Dew Point Humidity Pressure Visibility Wind Dir Wind Speed Gust Speed Precip Events Conditions
12:54 AM 48.0 °F - 42.1 °F 80% 29.91 in 10.0 mi East 9.2 mph 20.7 mph 0.00 in   Overcast
1:54 AM 46.9 °F - 44.1 °F 90% 29.94 in 10.0 mi ESE 10.4 mph 28.8 mph 0.01 in Rain Light Rain
2:20 AM 46.4 °F 44.3 °F 44.6 °F 93% 29.93 in 10.0 mi Variable 4.6 mph - 0.00 in   Overcast
2:43 AM 46.4 °F 40.4 °F 44.6 °F 93% 29.94 in 10.0 mi ESE 13.8 mph 21.9 mph 0.00 in   Overcast
2:54 AM 46.9 °F - 44.1 °F 90% 29.96 in 10.0 mi ESE 15.0 mph 29.9 mph 0.00 in Rain Light Rain
3:54 AM 46.9 °F - 44.1 °F 90% 29.98 in 10.0 mi ESE 12.7 mph 23.0 mph 0.00 in   Overcast
4:54 AM 46.9 °F - 44.1 °F 90% 29.98 in 10.0 mi ESE 11.5 mph 23.0 mph 0.00 in   Overcast
5:14 AM 46.4 °F 42.9 °F 44.6 °F 93% 29.98 in 10.0 mi East 6.9 mph 18.4 mph 0.00 in   Overcast
5:24 AM 46.4 °F 41.5 °F 44.6 °F 93% 29.97 in 10.0 mi East 10.4 mph 19.6 mph 0.00 in   Overcast
5:54 AM 46.9 °F - 44.1 °F 90% 29.99 in 8.0 mi East 10.4 mph 19.6 mph 0.01 in Rain Light Rain
6:12 AM 46.4 °F 42.4 °F 44.6 °F 93% 29.98 in 10.0 mi East 8.1 mph 20.7 mph 0.01 in Rain Light Rain
6:30 AM 46.4 °F 40.7 °F 44.6 °F 93% 29.98 in 10.0 mi East 12.7 mph 19.6 mph 0.02 in Rain Light Rain
6:54 AM 46.0 °F 41.0 °F 43.0 °F 89% 30.00 in 10.0 mi East 10.4 mph 17.3 mph 0.03 in Rain Light Rain
7:54 AM 46.9 °F - 44.1 °F 90% 30.01 in 10.0 mi East 8.1 mph 18.4 mph 0.03 in Rain Light Rain
8:02 AM 46.4 °F 42.4 °F 44.6 °F 93% 30.00 in 9.0 mi ENE 8.1 mph 17.3 mph 0.01 in Rain Light Rain
8:39 AM 46.4 °F 41.5 °F 42.8 °F 87% 30.00 in 9.0 mi ENE 10.4 mph 19.6 mph 0.05 in Rain Light Rain
8:54 AM 46.0 °F 40.6 °F 43.0 °F 89% 30.02 in 10.0 mi East 11.5 mph 18.4 mph 0.06 in Rain Light Rain
9:32 AM 46.4 °F 40.4 °F 42.8 °F 87% 30.01 in 6.0 mi ENE 13.8 mph 23.0 mph 0.02 in Rain Light Rain
9:54 AM 46.0 °F 41.0 °F 44.1 °F 93% 30.03 in 10.0 mi ESE 10.4 mph 20.7 mph 0.02 in   Overcast
10:03 AM 46.4 °F 41.5 °F 44.6 °F 93% 30.02 in 10.0 mi ESE 10.4 mph 19.6 mph N/A   Overcast
10:34 AM 46.4 °F 41.5 °F 42.8 °F 87% 30.03 in 10.0 mi East 10.4 mph 18.4 mph 0.00 in Rain Light Rain
10:50 AM 46.4 °F 41.1 °F 42.8 °F 87% 30.03 in 10.0 mi East 11.5 mph 18.4 mph 0.00 in Rain Light Rain
10:54 AM 46.0 °F 39.9 °F 42.1 °F 86% 30.04 in 10.0 mi East 13.8 mph 25.3 mph 0.00 in Rain Light Rain
11:54 AM 46.0 °F 40.6 °F 42.1 °F 86% 30.04 in 10.0 mi ENE 11.5 mph 21.9 mph 0.03 in Rain Light Rain
12:54 PM 46.0 °F 40.6 °F 44.1 °F 93% 30.04 in 7.0 mi East 11.5 mph 23.0 mph 0.05 in Rain Light Rain
1:43 PM 46.4 °F 40.1 °F 42.8 °F 87% 30.04 in 6.0 mi ENE 15.0 mph 32.2 mph 0.09 in Rain Rain
1:54 PM 46.0 °F 40.6 °F 43.0 °F 89% 30.06 in 5.0 mi East 11.5 mph 21.9 mph 0.11 in Rain Rain
2:27 PM 46.4 °F 40.4 °F 42.8 °F 87% 30.04 in 7.0 mi ENE 13.8 mph 24.2 mph 0.04 in Rain Light Rain
2:34 PM 46.4 °F 40.1 °F 42.8 °F 87% 30.04 in 8.0 mi East 15.0 mph 25.3 mph 0.05 in Rain Light Rain
2:54 PM 46.0 °F 41.0 °F 44.1 °F 93% 30.05 in 10.0 mi East 10.4 mph 19.6 mph 0.05 in Rain Light Rain
3:23 PM 46.4 °F 41.1 °F 44.6 °F 93% 30.04 in 6.0 mi ESE 11.5 mph 26.5 mph 0.02 in Rain Light Rain
3:54 PM 46.9 °F - 44.1 °F 90% 30.05 in 10.0 mi East 15.0 mph 26.5 mph 0.02 in Rain Light Rain
4:05 PM 46.4 °F 40.7 °F 44.6 °F 93% 30.05 in 10.0 mi East 12.7 mph 26.5 mph 0.00 in Rain Light Rain
4:54 PM 46.9 °F - 44.1 °F 90% 30.06 in 10.0 mi East 11.5 mph 19.6 mph 0.00 in Rain Light Rain
5:05 PM 46.4 °F 41.1 °F 44.6 °F 93% 30.05 in 10.0 mi East 11.5 mph 24.2 mph 0.00 in   Overcast
5:27 PM 46.4 °F 40.4 °F 42.8 °F 87% 30.04 in 10.0 mi ESE 13.8 mph 25.3 mph 0.01 in   Overcast
5:54 PM 46.0 °F 40.2 °F 43.0 °F 89% 30.06 in 10.0 mi ESE 12.7 mph 20.7 mph 0.01 in   Overcast
6:21 PM 44.6 °F 38.4 °F 42.8 °F 93% 30.05 in 10.0 mi East 12.7 mph 18.4 mph N/A   Overcast
6:54 PM 45.0 °F 39.3 °F 41.0 °F 86% 30.06 in 10.0 mi East 11.5 mph 23.0 mph N/A   Overcast
7:01 PM 44.6 °F 39.7 °F 41.0 °F 87% 30.05 in 10.0 mi ESE 9.2 mph 19.6 mph N/A   Overcast
7:54 PM 45.0 °F 39.3 °F 41.0 °F 86% 30.04 in 10.0 mi East 11.5 mph 21.9 mph N/A   Overcast
8:14 PM 46.4 °F 41.1 °F 39.2 °F 76% 30.03 in 10.0 mi ENE 11.5 mph 25.3 mph N/A   Overcast
8:54 PM 45.0 °F 38.9 °F 42.1 °F 90% 30.04 in 9.0 mi East 12.7 mph 20.7 mph 0.01 in Rain Light Rain
9:54 PM 44.1 °F 37.7 °F 39.9 °F 85% 30.04 in 8.0 mi ENE 12.7 mph 25.3 mph 0.05 in Rain Light Rain
10:54 PM 43.0 °F 38.8 °F 39.9 °F 89% 30.02 in 10.0 mi East 6.9 mph - 0.06 in Rain Light Rain
11:26 PM 42.8 °F 38.0 °F 39.2 °F 87% 30.01 in 8.0 mi ENE 8.1 mph - 0.07 in Rain Rain
11:54 PM 43.0 °F 38.8 °F 39.9 °F 89% 30.01 in 7.0 mi ENE 6.9 mph - 0.12 in Rain Rain